Location: Flotzheim
(48.8375°N, 10.8136°E)
Time: 04:51:32
(UTC+00:00)

USA 229 DEB - Pass Details

Date: 23 January 2021
Orbit: 965 x 1247 km, 63.4° (Epoch: 26 February)

Event Time Altitude Azimuth Distance (km) Brightness Sun altitude
Rises 17:25:41 0° 316° (NW) 3,908 7.1 -13.9°
Reaches altitude 10° 17:28:21 10° 321° (NW) 2,990 6.4 -14.3°
Maximum altitude 17:35:25 57° 40° (NE) 1,357 4.0 -15.5°
Enters shadow 17:41:51 15° 116° (ESE) 2,815 5.4 -16.5°
